| time (UTC) | temp F | wind direction | speed knots | gust knots | rain 1hr in | rain 24hr in | rain mn in | humidity % | barometer mb |
| 20260903202504 | 83 | 145 | 9.6 | 12.2 | 0.00 | 0.00 | 0.00 | 23 | 1016.6 |
| 20260903202006 | 82 | 161 | 7.8 | 13.9 | 0.00 | 0.00 | 0.00 | 23 | 1016.6 |
| 20260903201504 | 82 | 151 | 8.7 | 13.9 | 0.00 | 0.00 | 0.00 | 21 | 1016.7 |
| 20260903200504 | 82 | 135 | 8.7 | 15.6 | 0.00 | 0.00 | 0.00 | 23 | 1016.7 |
| 20260903200008 | 82 | 124 | 12.2 | 15.6 | 0.00 | 0.00 | 0.00 | 23 | 1001.1 |
| 20260903195005 | 82 | 144 | 7.8 | 14.8 | 0.00 | 0.00 | 0.00 | 25 | 1016.9 |
| 20260903194504 | 81 | 97 | 8.7 | 14.8 | 0.00 | 0.00 | 0.00 | 25 | 1016.9 |
| 20260903194502 | 81 | 97 | 8.7 | 14.8 | 0.00 | 0.00 | 0.00 | 25 | 1001.3 |
| 20260903194005 | 81 | 111 | 9.6 | 14.8 | 0.00 | 0.00 | 0.00 | 24 | 1016.9 |
| 20260903193504 | 81 | 159 | 4.3 | 15.6 | 0.00 | 0.00 | 0.00 | 24 | 1017.0 |
| 20260903193005 | 81 | 140 | 9.6 | 14.8 | 0.00 | 0.00 | 0.00 | 24 | 1017.1 |
| 20260903193002 | 81 | 140 | 9.6 | 14.8 | 0.00 | 0.00 | 0.00 | 24 | 1001.5 |
| 20260903192503 | 81 | 128 | 10.4 | 13.9 | 0.00 | 0.00 | 0.00 | 24 | 1017.2 |
| 20260903192006 | 82 | 190 | 7.0 | 13.0 | 0.00 | 0.00 | 0.00 | 25 | 1017.2 |
| 20260903191503 | 82 | 144 | 6.1 | 13.0 | 0.00 | 0.00 | 0.00 | 24 | 1017.3 |
| 20260903191004 | 81 | 116 | 8.7 | 15.6 | 0.00 | 0.00 | 0.00 | 25 | 1017.3 |
| 20260903190002 | 82 | 180 | 7.0 | 13.9 | 0.00 | 0.00 | 0.00 | 22 | 1001.8 |
| 20260903185504 | 82 | 205 | 6.1 | 9.6 | 0.00 | 0.00 | 0.00 | 21 | 1017.5 |
| 20260903185005 | 81 | 205 | 4.3 | 10.4 | 0.00 | 0.00 | 0.00 | 22 | 1017.4 |
| 20260903184502 | 81 | 231 | 2.6 | 10.4 | 0.00 | 0.00 | 0.00 | 22 | 1002.0 |
| 20260903184006 | 82 | 254 | 4.3 | 9.6 | 0.00 | 0.00 | 0.00 | 24 | 1017.7 |
| 20260903183505 | 82 | 266 | 3.5 | 9.6 | 0.00 | 0.00 | 0.00 | 24 | 1017.8 |
| 20260903183007 | 81 | 211 | 5.2 | 10.4 | 0.00 | 0.00 | 0.00 | 24 | 1017.8 |
| 20260903183003 | 81 | 211 | 4.3 | 10.4 | 0.00 | 0.00 | 0.00 | 24 | 1002.2 |
| 20260903182507 | 81 | 239 | 4.3 | 10.4 | 0.00 | 0.00 | 0.00 | 22 | 1018.0 |
| 20260903182005 | 80 | 232 | 3.5 | 9.6 | 0.00 | 0.00 | 0.00 | 25 | 1018.0 |
| 20260903181503 | 80 | 294 | 3.5 | 12.2 | 0.00 | 0.00 | 0.00 | 24 | 1018.0 |
| 20260903180504 | 80 | 222 | 2.6 | 7.8 | 0.00 | 0.00 | 0.00 | 25 | 1018.2 |
| 20260903180007 | 80 | 155 | 5.2 | 8.7 | 0.00 | 0.00 | 0.00 | 24 | 1018.3 |
| 20260903180003 | 80 | 155 | 5.2 | 8.7 | 0.00 | 0.00 | 0.00 | 24 | 1002.7 |
| 20260903175503 | 79 | 212 | 2.6 | 11.3 | 0.00 | 0.00 | 0.00 | 26 | 1018.3 |
| 20260903175005 | 79 | 218 | 4.3 | 11.3 | 0.00 | 0.00 | 0.00 | 24 | 1018.4 |
| 20260903174506 | 79 | 241 | 5.2 | 11.3 | 0.00 | 0.00 | 0.00 | 25 | 1018.4 |
| 20260903174006 | 79 | 309 | 3.5 | 6.1 | 0.00 | 0.00 | 0.00 | 25 | 1018.4 |
| 20260903173504 | 79 | 210 | 4.3 | 8.7 | 0.00 | 0.00 | 0.00 | 25 | 1018.5 |
| 20260903173001 | 79 | 280 | 1.7 | 12.2 | 0.00 | 0.00 | 0.00 | 26 | 1002.8 |
| 20260903172504 | 79 | 258 | 7.0 | 15.6 | 0.00 | 0.00 | 0.00 | 25 | 1018.6 |
| 20260903172005 | 79 | 254 | 3.5 | 15.6 | 0.00 | 0.00 | 0.00 | 26 | 1018.5 |
| 20260903171504 | 79 | 306 | 5.2 | 9.6 | 0.00 | 0.00 | 0.00 | 26 | 1002.8 |
| 20260903171005 | 79 | 227 | 3.5 | 10.4 | 0.00 | 0.00 | 0.00 | 26 | 1018.5 |
| 20260903170504 | 79 | 311 | 3.5 | 7.0 | 0.00 | 0.00 | 0.00 | 26 | 1018.5 |
| 20260903170006 | 78 | 276 | 2.6 | 11.3 | 0.00 | 0.00 | 0.00 | 26 | 1018.5 |
| 20260903170002 | 78 | 276 | 1.7 | 11.3 | 0.00 | 0.00 | 0.00 | 26 | 1002.9 |
| 20260903164502 | 77 | 315 | 3.5 | 8.7 | 0.00 | 0.00 | 0.00 | 26 | 1002.9 |
| 20260903163006 | 77 | 269 | 3.5 | 10.4 | 0.00 | 0.00 | 0.00 | 28 | 1018.4 |
| 20260903163001 | 77 | 269 | 3.5 | 10.4 | 0.00 | 0.00 | 0.00 | 28 | 1002.8 |
| 20260903162504 | 77 | 307 | 4.3 | 10.4 | 0.00 | 0.00 | 0.00 | 26 | 1018.3 |
| 20260903161504 | 77 | 260 | 3.5 | 12.2 | 0.00 | 0.00 | 0.00 | 29 | 1018.3 |
| 20260903161502 | 77 | 260 | 2.6 | 12.2 | 0.00 | 0.00 | 0.00 | 29 | 1002.7 |
| 20260903161004 | 77 | 289 | 5.2 | 10.4 | 0.00 | 0.00 | 0.00 | 27 | 1018.3 |
| 20260903160504 | 76 | 313 | 1.7 | 10.4 | 0.00 | 0.00 | 0.00 | 27 | 1018.4 |
| 20260903160008 | 76 | 250 | 4.3 | 10.4 | 0.00 | 0.00 | 0.00 | 29 | 1002.8 |
| 20260903155005 | 76 | 280 | 3.5 | 11.3 | 0.00 | 0.00 | 0.00 | 31 | 1018.4 |
| 20260903154602 | 76 | 269 | 3.5 | 11.3 | 0.00 | 0.00 | 0.00 | 30 | 1002.9 |
| 20260903153505 | 75 | 253 | 7.0 | 11.3 | 0.00 | 0.00 | 0.00 | 32 | 1018.4 |
| 20260903153101 | 75 | 207 | 4.3 | 8.7 | 0.00 | 0.00 | 0.00 | 31 | 1002.9 |
| 20260903153001 | 75 | 266 | 3.5 | 8.7 | 0.00 | 0.00 | 0.00 | 32 | 1018.4 |
| 20260903152504 | 75 | 247 | 5.2 | 8.7 | 0.00 | 0.00 | 0.00 | 31 | 1018.4 |
| 20260903152007 | 75 | 313 | 4.3 | 10.4 | 0.00 | 0.00 | 0.00 | 33 | 1018.4 |
| 20260903151508 | 74 | 262 | 5.2 | 10.4 | 0.00 | 0.00 | 0.00 | 32 | 1018.5 |
| 20260903151505 | 74 | 262 | 5.2 | 10.4 | 0.00 | 0.00 | 0.00 | 32 | 1003.0 |
| 20260903151006 | 74 | 313 | 4.3 | 9.6 | 0.00 | 0.00 | 0.00 | 34 | 1018.5 |
| 20260903150505 | 74 | 272 | 6.1 | 8.7 | 0.00 | 0.00 | 0.00 | 33 | 1018.5 |
| 20260903150014 | 73 | 288 | 1.7 | 9.6 | 0.00 | 0.00 | 0.00 | 36 | 1003.2 |
| 20260903150008 | 73 | 288 | 2.6 | 9.6 | 0.00 | 0.00 | 0.00 | 36 | 1018.6 |
| 20260903145007 | 73 | 261 | 4.3 | 8.7 | 0.00 | 0.00 | 0.00 | 34 | 1018.6 |
| 20260903144507 | 72 | 261 | 2.6 | 7.8 | 0.00 | 0.00 | 0.00 | 35 | 1003.2 |
| 20260903144006 | 72 | 270 | 3.5 | 7.8 | 0.00 | 0.00 | 0.00 | 35 | 1018.6 |
| 20260903143506 | 72 | 250 | 4.3 | 10.4 | 0.00 | 0.00 | 0.00 | 34 | 1018.5 |
| 20260903143014 | 72 | 247 | 2.6 | 10.4 | 0.00 | 0.00 | 0.00 | 34 | 1003.2 |
| 20260903143007 | 72 | 247 | 3.5 | 10.4 | 0.00 | 0.00 | 0.00 | 34 | 1018.5 |
| 20260903142507 | 71 | 281 | 3.5 | 7.8 | 0.00 | 0.00 | 0.00 | 35 | 1018.6 |
| 20260903142000 | 71 | 211 | 4.3 | 7.8 | 0.00 | 0.00 | 0.00 | 36 | 1018.5 |
| 20260903141507 | 71 | 220 | 2.6 | 6.1 | 0.00 | 0.00 | 0.00 | 37 | 1003.3 |
| 20260903140506 | 69 | 252 | 2.6 | 9.6 | 0.00 | 0.00 | 0.00 | 37 | 1018.5 |
| 20260903140008 | 69 | 257 | 1.7 | 6.1 | 0.00 | 0.00 | 0.00 | 42 | 1018.5 |
| 20260903140004 | 69 | 257 | 0.9 | 6.1 | 0.00 | 0.00 | 0.00 | 42 | 1003.4 |
| 20260903135507 | 68 | 203 | 2.6 | 6.1 | 0.00 | 0.00 | 0.00 | 40 | 1018.4 |
| 20260903135008 | 68 | 188 | 0.9 | 4.3 | 0.00 | 0.00 | 0.00 | 42 | 1018.5 |
| 20260903134506 | 67 | 188 | 2.6 | 4.3 | 0.00 | 0.00 | 0.00 | 40 | 1018.4 |
| 20260903134504 | 67 | 188 | 2.6 | 4.3 | 0.00 | 0.00 | 0.00 | 40 | 1003.3 |
| 20260903134007 | 67 | 188 | 2.6 | 3.5 | 0.00 | 0.00 | 0.00 | 41 | 1018.3 |
| 20260903133506 | 66 | 218 | 1.7 | 5.2 | 0.00 | 0.00 | 0.00 | 42 | 1018.2 |
| 20260903133007 | 66 | 187 | 2.6 | 7.0 | 0.00 | 0.00 | 0.00 | 41 | 1018.1 |
| 20260903133004 | 66 | 187 | 2.6 | 7.0 | 0.00 | 0.00 | 0.00 | 41 | 1003.0 |
| 20260903132007 | 63 | 207 | 3.5 | 6.1 | 0.00 | 0.00 | 0.00 | 45 | 1018.0 |
| 20260903131503 | 63 | 236 | 1.7 | 6.1 | 0.00 | 0.00 | 0.00 | 45 | 1002.9 |
| 20260903131007 | 62 | 184 | 0.9 | 4.3 | 0.00 | 0.00 | 0.00 | 47 | 1018.0 |
| 20260903130505 | 61 | 194 | 3.5 | 4.3 | 0.00 | 0.00 | 0.00 | 46 | 1018.0 |
| 20260903130010 | 61 | 197 | 2.6 | 4.3 | 0.00 | 0.00 | 0.00 | 47 | 1018.0 |
| 20260903130007 | 61 | 197 | 1.7 | 4.3 | 0.00 | 0.00 | 0.00 | 47 | 1002.9 |
| 20260903125506 | 61 | 245 | 1.7 | 5.2 | 0.00 | 0.00 | 0.00 | 46 | 1017.9 |
| 20260903125007 | 61 | 205 | 1.7 | 5.2 | 0.00 | 0.00 | 0.00 | 45 | 1017.7 |
| 20260903124506 | 62 | 173 | 1.7 | 3.5 | 0.00 | 0.00 | 0.00 | 43 | 1017.8 |
| 20260903124504 | 62 | 173 | 0.9 | 3.5 | 0.00 | 0.00 | 0.00 | 43 | 1002.7 |
| 20260903124007 | 64 | 173 | 1.7 | 3.5 | 0.00 | 0.00 | 0.00 | 42 | 1017.8 |
| 20260903123506 | 64 | 173 | 1.7 | 3.5 | 0.00 | 0.00 | 0.00 | 40 | 1017.8 |
| 20260903123007 | 64 | 173 | 0.9 | 5.2 | 0.00 | 0.00 | 0.00 | 40 | 1017.6 |
| 20260903123005 | 64 | 173 | 0.9 | 5.2 | 0.00 | 0.00 | 0.00 | 40 | 1002.6 |
| 20260903122006 | 63 | 186 | 4.3 | 7.0 | 0.00 | 0.00 | 0.00 | 42 | 1017.5 |
| 20260903121503 | 62 | 160 | 5.2 | 7.0 | 0.00 | 0.00 | 0.00 | 43 | 1002.5 |
| 20260903121007 | 62 | 173 | 5.2 | 7.8 | 0.00 | 0.00 | 0.00 | 44 | 1017.4 |
| 20260903120506 | 61 | 149 | 5.2 | 8.7 | 0.00 | 0.00 | 0.00 | 46 | 1017.3 |
| 20260903120011 | 60 | 157 | 5.2 | 7.8 | 0.00 | 0.00 | 0.00 | 49 | 1017.3 |
| 20260903120007 | 60 | 157 | 5.2 | 7.8 | 0.00 | 0.00 | 0.00 | 49 | 1002.4 |
| 20260903115505 | 58 | 150 | 3.5 | 7.8 | 0.00 | 0.00 | 0.00 | 51 | 1017.3 |
| 20260903115009 | 57 | 188 | 0.9 | 3.5 | 0.00 | 0.00 | 0.00 | 54 | 1017.2 |
| 20260903114505 | 58 | 188 | 0.9 | 3.5 | 0.00 | 0.00 | 0.00 | 53 | 1017.2 |
| 20260903114010 | 58 | 188 | 2.6 | 4.3 | 0.00 | 0.00 | 0.00 | 53 | 1017.2 |
| 20260903113505 | 58 | 188 | 2.6 | 6.1 | 0.00 | 0.00 | 0.00 | 54 | 1017.3 |
| 20260903113009 | 57 | 161 | 3.5 | 7.0 | 0.00 | 0.00 | 0.00 | 54 | 1017.3 |
| 20260903113007 | 57 | 161 | 3.5 | 7.0 | 0.00 | 0.00 | 0.00 | 54 | 1002.3 |
| 20260903112006 | 56 | 142 | 5.2 | 7.8 | 0.00 | 0.00 | 0.00 | 58 | 1017.3 |
| 20260903111505 | 56 | 138 | 5.2 | 7.8 | 0.00 | 0.00 | 0.00 | 59 | 1017.4 |
| 20260903111503 | 56 | 138 | 5.2 | 7.8 | 0.00 | 0.00 | 0.00 | 59 | 1002.4 |
| 20260903111007 | 56 | 128 | 0.9 | 1.7 | 0.00 | 0.00 | 0.00 | 59 | 1017.3 |
| 20260903110506 | 55 | 128 | 0.0 | 2.6 | 0.00 | 0.00 | 0.00 | 61 | 1017.2 |
| 20260903110007 | 55 | 128 | 0.9 | 2.6 | 0.00 | 0.00 | 0.00 | 63 | 1017.1 |
| 20260903110005 | 55 | 128 | 0.9 | 2.6 | 0.00 | 0.00 | 0.00 | 63 | 1002.1 |
| 20260903105505 | 55 | 128 | 0.9 | 3.5 | 0.00 | 0.00 | 0.00 | 64 | 1017.1 |
| 20260903104505 | 54 | 128 | 2.6 | 3.5 | 0.00 | 0.00 | 0.00 | 66 | 1017.1 |
| 20260903103505 | 54 | 128 | 1.7 | 2.6 | 0.00 | 0.00 | 0.00 | 70 | 1017.0 |
| 20260903103007 | 54 | 128 | 0.0 | 1.7 | 0.00 | 0.00 | 0.00 | 69 | 1017.0 |
| 20260903103004 | 54 | 128 | 0.0 | 1.7 | 0.00 | 0.00 | 0.00 | 69 | 1001.9 |
| 20260903102506 | 55 | 128 | 0.0 | 1.7 | 0.00 | 0.00 | 0.00 | 68 | 1017.1 |
| 20260903102006 | 56 | 128 | 0.0 | 3.5 | 0.00 | 0.00 | 0.00 | 67 | 1017.2 |
| 20260903101507 | 56 | 128 | 2.6 | 3.5 | 0.00 | 0.00 | 0.00 | 66 | 1017.2 |
| 20260903101505 | 56 | 128 | 2.6 | 3.5 | 0.00 | 0.00 | 0.00 | 66 | 1002.0 |
| 20260903101007 | 57 | 128 | 2.6 | 3.5 | 0.00 | 0.00 | 0.00 | 65 | 1017.3 |
| 20260903100506 | 58 | 240 | 0.0 | 2.6 | 0.00 | 0.00 | 0.00 | 64 | 1017.2 |
| 20260903100006 | 57 | 240 | 1.7 | 3.5 | 0.00 | 0.00 | 0.00 | 66 | 1017.1 |
| 20260903095505 | 57 | 240 | 2.6 | 3.5 | 0.00 | 0.00 | 0.00 | 67 | 1017.0 |
| 20260903095006 | 56 | 240 | 1.7 | 4.3 | 0.00 | 0.00 | 0.00 | 68 | 1017.0 |
| 20260903094505 | 56 | 207 | 0.9 | 7.0 | 0.00 | 0.00 | 0.00 | 68 | 1017.0 |
| 20260903094503 | 56 | 207 | 0.0 | 7.0 | 0.00 | 0.00 | 0.00 | 68 | 1001.8 |
| 20260903094006 | 56 | 207 | 3.5 | 7.0 | 0.00 | 0.00 | 0.00 | 69 | 1017.1 |
| 20260903093505 | 55 | 189 | 2.6 | 4.3 | 0.00 | 0.00 | 0.00 | 70 | 1017.2 |
| 20260903093006 | 55 | 189 | 2.6 | 5.2 | 0.00 | 0.00 | 0.00 | 70 | 1002.0 |
| 20260903092505 | 55 | 198 | 3.5 | 6.1 | 0.00 | 0.00 | 0.00 | 70 | 1017.2 |
| 20260903092007 | 55 | 229 | 2.6 | 6.1 | 0.00 | 0.00 | 0.00 | 69 | 1017.2 |
| 20260903091506 | 56 | 213 | 3.5 | 5.2 | 0.00 | 0.00 | 0.00 | 70 | 1017.1 |
| 20260903091005 | 55 | 213 | 3.5 | 6.1 | 0.00 | 0.00 | 0.00 | 69 | 1017.1 |
| 20260903090505 | 56 | 199 | 1.7 | 5.2 | 0.00 | 0.00 | 0.00 | 69 | 1017.3 |
| 20260903090010 | 55 | 199 | 2.6 | 5.2 | 0.00 | 0.00 | 0.00 | 71 | 1001.8 |
| 20260903085506 | 55 | 199 | 2.6 | 3.5 | 0.00 | 0.00 | 0.00 | 70 | 1017.3 |
| 20260903085005 | 55 | 199 | 0.0 | 1.7 | 0.00 | 0.00 | 0.00 | 69 | 1017.1 |
| 20260903084506 | 56 | 199 | 1.7 | 1.7 | 0.00 | 0.00 | 0.00 | 69 | 1016.9 |
| 20260903084503 | 56 | 199 | 0.9 | 1.7 | 0.00 | 0.00 | 0.00 | 69 | 1001.5 |
| 20260903084007 | 56 | 199 | 0.9 | 1.7 | 0.00 | 0.00 | 0.00 | 69 | 1017.0 |
| 20260903083505 | 56 | 199 | 0.9 | 2.6 | 0.00 | 0.00 | 0.00 | 69 | 1017.1 |
| 20260903083005 | 56 | 199 | 0.9 | 3.5 | 0.00 | 0.00 | 0.00 | 69 | 1001.7 |
| 20260903082505 | 56 | 199 | 2.6 | 3.5 | 0.00 | 0.00 | 0.00 | 70 | 1017.1 |
| 20260903082007 | 55 | 199 | 2.6 | 3.5 | 0.00 | 0.00 | 0.00 | 71 | 1017.1 |
| 20260903081504 | 55 | 199 | 2.6 | 3.5 | 0.00 | 0.00 | 0.00 | 71 | 1001.9 |
| 20260903081006 | 55 | 199 | 2.6 | 3.5 | 0.00 | 0.00 | 0.00 | 70 | 1017.3 |
| 20260903080505 | 56 | 199 | 1.7 | 3.5 | 0.00 | 0.00 | 0.00 | 69 | 1017.4 |
| 20260903080008 | 56 | 199 | 1.7 | 3.5 | 0.00 | 0.00 | 0.00 | 69 | 1017.3 |
| 20260903080004 | 56 | 199 | 0.9 | 3.5 | 0.00 | 0.00 | 0.00 | 69 | 1001.9 |
| 20260903075505 | 56 | 199 | 2.6 | 3.5 | 0.00 | 0.00 | 0.00 | 69 | 1017.3 |
| 20260903075006 | 56 | 199 | 2.6 | 3.5 | 0.00 | 0.00 | 0.00 | 69 | 1017.4 |
| 20260903074505 | 57 | 199 | 2.6 | 4.3 | 0.00 | 0.00 | 0.00 | 68 | 1017.6 |
| 20260903074503 | 57 | 199 | 1.7 | 4.3 | 0.00 | 0.00 | 0.00 | 68 | 1002.2 |
| 20260903074005 | 57 | 199 | 1.7 | 3.5 | 0.00 | 0.00 | 0.00 | 68 | 1017.6 |
| 20260903073505 | 57 | 199 | 1.7 | 4.3 | 0.00 | 0.00 | 0.00 | 68 | 1017.5 |
| 20260903073006 | 57 | 199 | 3.5 | 4.3 | 0.00 | 0.00 | 0.00 | 67 | 1017.5 |
| 20260903072505 | 57 | 199 | 2.6 | 4.3 | 0.00 | 0.00 | 0.00 | 67 | 1017.6 |
| 20260903072006 | 57 | 199 | 3.5 | 4.3 | 0.00 | 0.00 | 0.00 | 67 | 1017.6 |
| 20260903071509 | 57 | 205 | 1.7 | 4.3 | 0.00 | 0.00 | 0.00 | 67 | 1002.2 |
| 20260903071505 | 57 | 205 | 2.6 | 4.3 | 0.00 | 0.00 | 0.00 | 67 | 1017.6 |
| 20260903071006 | 57 | 220 | 2.6 | 4.3 | 0.00 | 0.00 | 0.00 | 67 | 1017.6 |
| 20260903070505 | 58 | 211 | 2.6 | 3.5 | 0.00 | 0.00 | 0.00 | 66 | 1017.6 |
| 20260903070008 | 58 | 211 | 1.7 | 2.6 | 0.00 | 0.00 | 0.00 | 66 | 1017.6 |
| 20260903070005 | 58 | 211 | 1.7 | 2.6 | 0.00 | 0.00 | 0.00 | 66 | 1002.2 |
| 20260903065505 | 58 | 211 | 0.0 | 2.6 | 0.00 | 0.00 | 0.00 | 67 | 1017.6 |
| 20260903065006 | 58 | 211 | 0.9 | 3.5 | 0.00 | 0.00 | 0.00 | 67 | 1017.6 |
| 20260903064505 | 58 | 211 | 2.6 | 3.5 | 0.00 | 0.00 | 0.00 | 66 | 1017.6 |
| 20260903064503 | 58 | 211 | 2.6 | 3.5 | 0.00 | 0.00 | 0.00 | 66 | 1002.1 |
| 20260903064006 | 58 | 211 | 1.7 | 5.2 | 0.00 | 0.00 | 0.00 | 67 | 1017.7 |
| 20260903063506 | 58 | 222 | 3.5 | 5.2 | 0.00 | 0.00 | 0.00 | 68 | 1017.8 |
| 20260903063006 | 57 | 223 | 3.5 | 6.1 | 0.00 | 0.00 | 0.00 | 69 | 1018.0 |
| 20260903063003 | 57 | 223 | 2.6 | 6.1 | 0.00 | 0.00 | 0.00 | 69 | 1002.5 |
| 20260903062505 | 56 | 222 | 2.6 | 4.3 | 0.00 | 0.00 | 0.00 | 70 | 1017.9 |
| 20260903062006 | 56 | 223 | 2.6 | 4.3 | 0.00 | 0.00 | 0.00 | 70 | 1017.8 |
| 20260903061507 | 56 | 223 | 2.6 | 4.3 | 0.00 | 0.00 | 0.00 | 69 | 1002.3 |
| 20260903061007 | 57 | 103 | 1.7 | 6.1 | 0.00 | 0.00 | 0.00 | 67 | 1017.5 |
| 20260903060506 | 57 | 103 | 3.5 | 7.0 | 0.00 | 0.00 | 0.00 | 67 | 1017.5 |
| 20260903060008 | 58 | 82 | 2.6 | 6.1 | 0.00 | 0.00 | 0.00 | 65 | 1002.1 |
| 20260903055505 | 58 | 294 | 2.6 | 4.3 | 0.00 | 0.00 | 0.00 | 64 | 1017.7 |
| 20260903055005 | 59 | 294 | 3.5 | 4.3 | 0.00 | 0.00 | 0.00 | 64 | 1017.8 |
| 20260903054502 | 59 | 294 | 2.6 | 4.3 | 0.00 | 0.00 | 0.00 | 63 | 1002.3 |
| 20260903053504 | 60 | 294 | 0.9 | 2.6 | 0.00 | 0.00 | 0.00 | 62 | 1017.6 |
| 20260903053005 | 60 | 294 | 0.9 | 2.6 | 0.00 | 0.00 | 0.00 | 62 | 1017.6 |
| 20260903053003 | 60 | 294 | 0.9 | 2.6 | 0.00 | 0.00 | 0.00 | 62 | 1002.1 |
| 20260903052006 | 60 | 294 | 0.9 | 1.7 | 0.00 | 0.00 | 0.00 | 62 | 1017.7 |
| 20260903051505 | 60 | 294 | 0.0 | 1.7 | 0.00 | 0.00 | 0.00 | 62 | 1017.6 |
| 20260903051502 | 60 | 294 | 0.0 | 1.7 | 0.00 | 0.00 | 0.00 | 62 | 1002.0 |
| 20260903051006 | 60 | 294 | 0.0 | 1.7 | 0.00 | 0.00 | 0.00 | 61 | 1017.6 |
| 20260903050500 | 61 | 294 | 0.9 | 1.7 | 0.00 | 0.00 | 0.00 | 59 | 1017.6 |
| 20260903050006 | 61 | 294 | 0.0 | 0.9 | 0.00 | 0.00 | 0.00 | 60 | 1017.6 |
| 20260903045506 | 62 | 294 | 0.0 | 0.9 | 0.00 | 0.00 | 0.00 | 59 | 1017.8 |
| 20260903045004 | 62 | 294 | 0.0 | 2.6 | 0.00 | 0.00 | 0.00 | 59 | 1017.9 |
| 20260903044504 | 62 | 294 | 0.0 | 2.6 | 0.00 | 0.00 | 0.00 | 59 | 1018.0 |
| 20260903044005 | 62 | 294 | 0.9 | 3.5 | 0.00 | 0.00 | 0.00 | 59 | 1018.0 |
| 20260903043006 | 62 | 294 | 4.3 | 7.0 | 0.00 | 0.00 | 0.00 | 59 | 1002.5 |
| 20260903042504 | 62 | 310 | 2.6 | 3.5 | 0.00 | 0.00 | 0.00 | 59 | 1017.9 |
| 20260903042006 | 63 | 9 | 0.9 | 4.3 | 0.00 | 0.00 | 0.00 | 58 | 1017.9 |
| 20260903041558 | 63 | 5 | 0.0 | 4.3 | 0.00 | 0.00 | 0.00 | 57 | 1002.1 |
| 20260903041005 | 64 | 23 | 2.6 | 4.3 | 0.00 | 0.00 | 0.00 | 56 | 1017.7 |
| 20260903040504 | 65 | 23 | 2.6 | 4.3 | 0.00 | 0.00 | 0.00 | 54 | 1017.6 |
| 20260903040004 | 66 | 5 | 0.9 | 4.3 | 0.00 | 0.00 | 0.00 | 53 | 1001.8 |
| 20260903034504 | 68 | 343 | 0.9 | 4.3 | 0.00 | 0.00 | 0.00 | 48 | 1017.6 |
| 20260903034502 | 68 | 343 | 0.9 | 4.3 | 0.00 | 0.00 | 0.00 | 48 | 1001.9 |
| 20260903034006 | 68 | 332 | 1.7 | 9.6 | 0.00 | 0.00 | 0.00 | 47 | 1017.8 |
| 20260903033503 | 69 | 5 | 0.9 | 10.4 | 0.00 | 0.00 | 0.00 | 46 | 1017.8 |
| 20260903033004 | 69 | 5 | 2.6 | 12.2 | 0.00 | 0.00 | 0.00 | 45 | 1017.7 |
| 20260903033002 | 69 | 5 | 2.6 | 12.2 | 0.00 | 0.00 | 0.00 | 45 | 1001.9 |
| 20260903032504 | 69 | 319 | 5.2 | 12.2 | 0.00 | 0.00 | 0.00 | 45 | 1017.5 |
| 20260903032005 | 70 | 311 | 7.0 | 13.9 | 0.00 | 0.00 | 0.00 | 43 | 1017.4 |
| 20260903031505 | 71 | 329 | 5.2 | 17.4 | 0.00 | 0.00 | 0.00 | 41 | 1001.5 |
| 20260903031008 | 72 | 301 | 10.4 | 17.4 | 0.00 | 0.00 | 0.00 | 37 | 1017.0 |
| 20260903030504 | 73 | 290 | 8.7 | 12.2 | 0.00 | 0.00 | 0.00 | 35 | 1016.9 |
| 20260903030003 | 73 | 213 | 0.9 | 2.6 | 0.00 | 0.00 | 0.00 | 32 | 1001.1 |
| 20260903025504 | 74 | 213 | 0.9 | 4.3 | 0.00 | 0.00 | 0.00 | 31 | 1016.7 |
| 20260903025005 | 74 | 213 | 2.6 | 4.3 | 0.00 | 0.00 | 0.00 | 30 | 1016.6 |
| 20260903024504 | 75 | 213 | 0.9 | 2.6 | 0.00 | 0.00 | 0.00 | 30 | 1016.5 |
| 20260903024005 | 75 | 213 | 1.7 | 3.5 | 0.00 | 0.00 | 0.00 | 29 | 1016.4 |
| 20260903023504 | 76 | 213 | 1.7 | 4.3 | 0.00 | 0.00 | 0.00 | 28 | 1016.3 |
| 20260903023003 | 76 | 213 | 0.9 | 6.1 | 0.00 | 0.00 | 0.00 | 28 | 1000.5 |
| 20260903022005 | 76 | 205 | 4.3 | 7.0 | 0.00 | 0.00 | 0.00 | 28 | 1016.1 |
| 20260903021503 | 75 | 302 | 2.6 | 7.0 | 0.00 | 0.00 | 0.00 | 29 | 1000.2 |
| 20260903021006 | 74 | 204 | 3.5 | 6.1 | 0.00 | 0.00 | 0.00 | 31 | 1015.9 |
| 20260903020007 | 74 | 273 | 1.7 | 3.5 | 0.00 | 0.00 | 0.00 | 32 | 1015.9 |
| 20260903020003 | 74 | 273 | 1.7 | 3.5 | 0.00 | 0.00 | 0.00 | 32 | 1000.2 |
| 20260903015504 | 74 | 302 | 1.7 | 5.2 | 0.00 | 0.00 | 0.00 | 32 | 1015.8 |
| 20260903015006 | 74 | 201 | 3.5 | 7.0 | 0.00 | 0.00 | 0.00 | 30 | 1015.6 |
| 20260903014504 | 73 | 192 | 3.5 | 7.0 | 0.00 | 0.00 | 0.00 | 32 | 1015.4 |
| 20260903014502 | 73 | 192 | 3.5 | 7.0 | 0.00 | 0.00 | 0.00 | 32 | 999.6 |
| 20260903014004 | 71 | 168 | 3.5 | 6.1 | 0.00 | 0.00 | 0.00 | 34 | 1015.3 |
| 20260903013505 | 72 | 129 | 0.0 | 2.6 | 0.00 | 0.00 | 0.00 | 37 | 1015.4 |
| 20260903013006 | 72 | 129 | 1.7 | 3.5 | 0.00 | 0.00 | 0.00 | 33 | 1015.4 |
| 20260903013002 | 72 | 129 | 0.9 | 3.5 | 0.00 | 0.00 | 0.00 | 33 | 999.5 |
| 20260903012504 | 73 | 129 | 0.9 | 3.5 | 0.00 | 0.00 | 0.00 | 32 | 1015.3 |
| 20260903012006 | 74 | 129 | 0.0 | 0.9 | 0.00 | 0.00 | 0.00 | 34 | 1015.3 |
| 20260903011503 | 75 | 129 | 0.0 | 1.7 | 0.00 | 0.00 | 0.00 | 35 | 999.4 |
| 20260903011007 | 75 | 129 | 0.9 | 3.5 | 0.00 | 0.00 | 0.00 | 32 | 1015.3 |
| 20260903010504 | 75 | 129 | 2.6 | 4.3 | 0.00 | 0.00 | 0.00 | 33 | 1015.3 |
| 20260903010007 | 76 | 129 | 3.5 | 7.0 | 0.00 | 0.00 | 0.00 | 32 | 1015.3 |
| 20260903010003 | 76 | 129 | 2.6 | 7.0 | 0.00 | 0.00 | 0.00 | 32 | 999.4 |
| 20260903005504 | 76 | 129 | 2.6 | 10.4 | 0.00 | 0.00 | 0.00 | 32 | 1015.4 |
| 20260903005006 | 77 | 120 | 6.1 | 12.2 | 0.00 | 0.00 | 0.00 | 31 | 1015.4 |
| 20260903004502 | 77 | 119 | 9.6 | 12.2 | 0.00 | 0.00 | 0.00 | 30 | 999.4 |
| 20260903004006 | 77 | 157 | 6.1 | 11.3 | 0.00 | 0.00 | 0.00 | 31 | 1015.2 |
| 20260903003505 | 78 | 136 | 7.0 | 13.0 | 0.00 | 0.00 | 0.00 | 31 | 1015.2 |
| 20260903003005 | 79 | 104 | 7.8 | 13.0 | 0.00 | 0.00 | 0.00 | 30 | 1015.2 |
| 20260903003002 | 79 | 104 | 7.8 | 13.0 | 0.00 | 0.00 | 0.00 | 30 | 999.3 |
| 20260903002504 | 79 | 92 | 8.7 | 12.2 | 0.00 | 0.00 | 0.00 | 30 | 1015.2 |
| 20260903002005 | 79 | 93 | 8.7 | 14.8 | 0.00 | 0.00 | 0.00 | 30 | 1015.2 |
| 20260903001505 | 80 | 106 | 11.3 | 14.8 | 0.00 | 0.00 | 0.00 | 30 | 1015.2 |
| 20260903001502 | 80 | 106 | 10.4 | 14.8 | 0.00 | 0.00 | 0.00 | 30 | 999.3 |
| 20260903001001 | 80 | 105 | 9.6 | 14.8 | 0.00 | 0.00 | 0.00 | 29 | 1015.2 |
| 20260903000505 | 80 | 103 | 10.4 | 14.8 | 0.00 | 0.00 | 0.00 | 29 | 1015.3 |
| 20260903000007 | 80 | 104 | 9.6 | 15.6 | 0.00 | 0.00 | 0.00 | 30 | 1015.3 |
| 20260903000004 | 80 | 104 | 8.7 | 15.6 | 0.00 | 0.00 | 0.00 | 30 | 999.4 |
| 20260902235504 | 80 | 115 | 12.2 | 16.5 | 0.00 | 0.00 | 0.00 | 30 | 1015.4 |
| 20260902235005 | 80 | 87 | 10.4 | 16.5 | 0.00 | 0.00 | 0.00 | 29 | 1015.4 |
| 20260902234504 | 81 | 107 | 9.6 | 15.6 | 0.00 | 0.00 | 0.00 | 29 | 1015.4 |
| 20260902234502 | 81 | 107 | 8.7 | 15.6 | 0.00 | 0.00 | 0.00 | 29 | 999.5 |
| 20260902234005 | 81 | 130 | 10.4 | 15.6 | 0.00 | 0.00 | 0.00 | 27 | 1015.4 |
| 20260902233504 | 81 | 107 | 10.4 | 14.8 | 0.00 | 0.00 | 0.00 | 29 | 1015.5 |
| 20260902233002 | 81 | 120 | 8.7 | 14.8 | 0.00 | 0.00 | 0.00 | 28 | 999.7 |
| 20260902232505 | 81 | 109 | 8.7 | 15.6 | 0.00 | 0.00 | 0.00 | 27 | 1015.4 |
| 20260902232006 | 82 | 128 | 11.3 | 15.6 | 0.00 | 0.00 | 0.00 | 27 | 1015.6 |
| 20260902231505 | 81 | 98 | 9.6 | 15.6 | 0.00 | 0.00 | 0.00 | 27 | 1015.6 |
| 20260902231005 | 81 | 115 | 9.6 | 14.8 | 0.00 | 0.00 | 0.00 | 29 | 1015.7 |
| 20260902230504 | 81 | 90 | 9.6 | 16.5 | 0.00 | 0.00 | 0.00 | 29 | 1015.6 |
| 20260902230003 | 80 | 117 | 8.7 | 18.2 | 0.00 | 0.00 | 0.00 | 31 | 999.9 |
| 20260902225504 | 81 | 110 | 11.3 | 15.6 | 0.00 | 0.00 | 0.00 | 30 | 1015.8 |
| 20260902225005 | 81 | 96 | 8.7 | 13.9 | 0.00 | 0.00 | 0.00 | 32 | 1015.8 |
| 20260902224505 | 81 | 102 | 11.3 | 18.2 | 0.00 | 0.00 | 0.00 | 30 | 1015.9 |
| 20260902224503 | 81 | 102 | 10.4 | 18.2 | 0.00 | 0.00 | 0.00 | 30 | 1000.1 |
| 20260902223504 | 81 | 84 | 7.8 | 15.6 | 0.00 | 0.00 | 0.00 | 30 | 1016.0 |
| 20260902223103 | 81 | 69 | 7.8 | 17.4 | 0.00 | 0.00 | 0.00 | 30 | 1000.3 |
| 20260902222505 | 81 | 113 | 12.2 | 17.4 | 0.00 | 0.00 | 0.00 | 30 | 1016.2 |
| 20260902222006 | 80 | 110 | 7.0 | 12.2 | 0.00 | 0.00 | 0.00 | 30 | 1016.3 |
| 20260902221506 | 80 | 65 | 9.6 | 12.2 | 0.00 | 0.00 | 0.00 | 30 | 1016.3 |
| 20260902221503 | 80 | 65 | 8.7 | 12.2 | 0.00 | 0.00 | 0.00 | 30 | 1000.4 |
| 20260902221004 | 79 | 75 | 7.8 | 12.2 | 0.00 | 0.00 | 0.00 | 31 | 1016.4 |
| 20260902220503 | 80 | 88 | 7.8 | 16.5 | 0.00 | 0.00 | 0.00 | 30 | 1016.5 |
| 20260902220006 | 81 | 126 | 10.4 | 16.5 | 0.00 | 0.00 | 0.00 | 27 | 1000.7 |
| 20260902215505 | 82 | 110 | 10.4 | 13.9 | 0.00 | 0.00 | 0.00 | 29 | 1016.5 |
| 20260902215006 | 81 | 62 | 7.8 | 13.0 | 0.00 | 0.00 | 0.00 | 29 | 1016.6 |
| 20260902214506 | 80 | 67 | 8.7 | 13.0 | 0.00 | 0.00 | 0.00 | 30 | 1016.7 |
| 20260902214502 | 80 | 67 | 8.7 | 13.0 | 0.00 | 0.00 | 0.00 | 30 | 1000.9 |
| 20260902214007 | 79 | 65 | 7.0 | 12.2 | 0.00 | 0.00 | 0.00 | 31 | 1016.8 |
| 20260902213504 | 79 | 80 | 7.8 | 15.6 | 0.00 | 0.00 | 0.00 | 30 | 1016.9 |
| 20260902213006 | 80 | 122 | 7.8 | 15.6 | 0.00 | 0.00 | 0.00 | 29 | 1016.9 |
| 20260902213004 | 80 | 122 | 7.8 | 15.6 | 0.00 | 0.00 | 0.00 | 29 | 1001.2 |
| 20260902212505 | 80 | 87 | 4.3 | 13.9 | 0.00 | 0.00 | 0.00 | 28 | 1016.9 |
| 20260902212005 | 80 | 126 | 6.1 | 13.9 | 0.00 | 0.00 | 0.00 | 30 | 1017.0 |
| 20260902211505 | 80 | 111 | 8.7 | 12.2 | 0.00 | 0.00 | 0.00 | 31 | 1001.4 |
| 20260902211001 | 79 | 86 | 7.8 | 11.3 | 0.00 | 0.00 | 0.00 | 32 | 1017.4 |
| 20260902210504 | 79 | 91 | 7.8 | 11.3 | 0.00 | 0.00 | 0.00 | 29 | 1017.4 |
| 20260902210006 | 79 | 75 | 6.1 | 11.3 | 0.00 | 0.00 | 0.00 | 31 | 1017.5 |
| 20260902205503 | 78 | 88 | 7.8 | 11.3 | 0.00 | 0.00 | 0.00 | 32 | 1017.6 |
| 20260902204505 | 77 | 85 | 4.3 | 11.3 | 0.00 | 0.00 | 0.00 | 32 | 1017.8 |
| 20260902204502 | 77 | 85 | 3.5 | 11.3 | 0.00 | 0.00 | 0.00 | 32 | 1002.0 |
| 20260902204005 | 77 | 109 | 4.3 | 11.3 | 0.00 | 0.00 | 0.00 | 32 | 1017.8 |
| 20260902203504 | 78 | 94 | 7.8 | 11.3 | 0.00 | 0.00 | 0.00 | 32 | 1017.9 |
| 20260902203003 | 78 | 94 | 6.1 | 12.2 | 0.00 | 0.00 | 0.00 | 30 | 1002.2 |